Flag for U.S.A. Weather past 2 weeks in Fort Wayne, Indiana, U.S.A.

Now
67 °F

Partly sunny.


Feels Like: 67 °F
Forecast: 60 / 82 °F
Wind: No wind

Location: Fort Wayne International Airport

Current Time: Jul 5, 2015 at 9:39:43 AM

Latest Report: Jul 5, 2015 at 8:54 AM


Visibility: 3 mi

Pressure: 30.12 "Hg

Humidity: 79%

Dew point: 60 °F

Location of Fort WayneLocation

Historic Weather in Fort Wayne — Graph

°F

Fort Wayne temperature yesterday

Maximum temperature yesterday: 80 °F (at 4:54 PM)
Minimum temperature yesterday: 56 °F (at 4:54 AM)
Average temperature yesterday: 69 °F

Past Weeks' High & Low Weather Summary

 TemperatureHumidityPressure
High85 °F (Jun 22, 5:54 PM)100% (Jun 30, 3:54 AM)30.19 "Hg (Jun 30, 3:54 AM)
Low27 °F (Jun 22, 9:54 PM)40% (Jun 28, 5:54 PM)29.73 "Hg (Jun 27, 7:54 AM)
Average69 °F77%29.93 "Hg
* Reported Jun 20 7:54 AM — Jul 5 7:54 AM, Fort Wayne, Weather by CustomWeather, © 2015

Note: Actual official high and low records may vary slightly from our data, if they occured in-between our weather recording intervals... More about our weather records

Advertising

Fort Wayne weather history for previous 24 hours

 ConditionsComfort  
Time TempWeatherWind HumidityBarometerVisibility
7:54 AM
Sun, Jul 5
63 °FFog.3 mph90%30.11 "Hg1 mi
6:54 AM59 °FFog.No wind93%30.11 "Hg2 mi
5:54 AM59 °FPassing clouds.No wind96%30.09 "Hg10 mi
4:54 AM60 °FClear.No wind96%30.07 "Hg10 mi
3:54 AM61 °FClear.No wind93%30.06 "Hg10 mi
2:54 AM62 °FPassing clouds.No wind90%30.06 "Hg10 mi
1:54 AM62 °FPassing clouds.3 mph90%30.06 "Hg10 mi
12:54 AM64 °FClear.No wind87%30.05 "Hg10 mi
11:54 PM
Sat, Jul 4
66 °FClear.No wind84%30.05 "Hg10 mi
10:54 PM67 °FClear.No wind81%30.04 "Hg10 mi
9:54 PM68 °FSunny.No wind78%30.02 "Hg10 mi
8:54 PM71 °FSunny.No wind76%30.01 "Hg10 mi
7:54 PM75 °FPassing clouds.5 mph58%29.99 "Hg10 mi
6:54 PM78 °FPartly sunny.5 mph48%29.99 "Hg10 mi
5:54 PM79 °FPartly sunny.6 mph41%30.01 "Hg10 mi
4:54 PM80 °FOvercast.6 mph42%30.01 "Hg10 mi
3:54 PM79 °FMore clouds than sun.8 mph47%30.01 "Hg10 mi
2:54 PM78 °FMore clouds than sun.5 mph48%30.01 "Hg10 mi
1:54 PM76 °FMostly cloudy.3 mph52%30.02 "Hg10 mi
12:54 PM75 °FPartly sunny.5 mph55%30.01 "Hg10 mi
11:54 AM75 °FPartly sunny.No wind58%30.01 "Hg10 mi
10:54 AM73 °FPassing clouds.3 mph64%30.00 "Hg10 mi
9:54 AM68 °FSunny.3 mph76%30.00 "Hg9 mi
Weather by CustomWeather, © 2015

See weather overviewHow to use our weather pages